Regional Weather Roundup
Issued by NWS

Home | Current Version | Previous Version | Text Only | Print | Product List | Glossary Off
Versions: 1 2 3 4 5 6 7 8 9 10 11 12 13 14 15 16 17 18 19 20 21 22 23 24 25 26 27 28 29 30 31 32 33 34 35 36 37 38 39 40 41 42 43 44 45 46 47 48 49 50

000
ASUS43 KLSX 292057
RWRMO

WEATHER SUMMARY FOR MISSOURI
NATIONAL WEATHER SERVICE SPRINGFIELD MO
400 PM CDT FRI APR 29 2016

NOTE: "FAIR" INDICATES FEW OR NO CLOUDS BELOW 12,000 FEET WITH NO
       SIGNIFICANT WEATHER AND/OR OBSTRUCTIONS TO VISIBILITY.
       CURRENT SKY AND/OR WEATHER CONDITIONS ARE NOT AVAILABLE FOR
       CHILLICOTHE AND FARMINGTON.

MOZ001>031-035>038-043-044-053-054-292200-
...NORTHERN AND WESTERN MISSOURI...

CITY           SKY/WX    TMP DP  RH WIND       PRES   REMARKS
KANSAS CTY INT CLOUDY    54  47  77 E9        29.95S
LEE`S SUMMIT   CLOUDY    55  48  77 E18G24    29.92F
ST JOSEPH      CLOUDY    54  46  74 NE13      29.96F
CHILLICOTHE      N/A     57  48  72 E9        29.98F

$$
MOZ066>068-077>081-088>096-101>105-292200-
...SOUTHWEST MISSOURI...

CITY           SKY/WX    TMP DP  RH WIND       PRES   REMARKS
SPRINGFIELD    CLOUDY    63  54  72 E20G26    29.82F
JOPLIN         CLOUDY    64  56  75 E15G28    29.75F
BRANSON        FOG       57  57 100 E18       29.84F VSB 1

$$
MOZ032>034-039>042-045>050-055>058-069>072-292200-
...CENTRAL MISSOURI...

CITY           SKY/WX    TMP DP  RH WIND       PRES   REMARKS
COLUMBIA       NOT AVBL
JEFFERSON CITY CLOUDY    63  50  62 E10       29.94F
ROLLA          CLOUDY    61  51  70 E16       29.92F
SEDALIA        CLOUDY    62  52  69 NE12G22   29.94F
WARRENSBURG    CLOUDY    57  50  77 NE15      29.90F

$$
MOZ051-052-059>065-292200-
...EAST CENTRAL MISSOURI...

CITY           SKY/WX    TMP DP  RH WIND       PRES   REMARKS
ST LOUIS INTL  CLOUDY    64  50  60 NE6       30.01F

$$
MOZ072>076-082>087-097>100-106>115-292200-
...SOUTH CENTRAL AND SOUTHEAST MISSOURI...

CITY           SKY/WX    TMP DP  RH WIND       PRES   REMARKS
CAPE GIRARDEAU CLOUDY    60  56  86 E12       29.94F
POPLAR BLUFF   CLOUDY    61  57  87 E9        29.93F
WEST PLAINS    CLOUDY    59  54  83 E12       29.90F

$$



USA.gov is the U.S. government's official web portal to all federal, state and local government web resources and services.